sat.trackr.live / text

‹ back to catalog

NUVIEW ALPHA

NORAD 62455 · 2024-252B

PAYLOAD ACTIVE UNKNOWN

§ Identity

Operator
Country
UK
Launch date
2024-12-29
Launch site
AFETR
Launch vehicle
Mass (kg)
RCS (m²)

Purposes: comms

External: N2YO · Heavens-Above · Gunter

§ Orbital elements

Epoch: 2026-09-19T21:42:31.562208Z

Period
1,436.09 min
Inclination
0.0504°
Eccentricity
0.0000276
Mean motion
1.00272294 rev/d
Perigee alt
35,785.3 km
Apogee alt
35,787.6 km
Semi-major
42,164.6 km
B*
0.0000e+0
RAAN
11.5889°
Arg perigee
167.0031°
Mean anomaly
62.7449°
Rev number
477

§ Raw data

NUVIEW ALPHA1 62455U 24252B   26262.90453197 -.00000220  00000+0  00000+0 0  99962 62455   0.0504  11.5889 0000276 167.0031  62.7449  1.00272294  4775

JSON: /api/v1/satellites/62455 · /tle

For live sub-satellite position, see the globe view (requires WebGL).

§ Visibility from observer

Set your observer location to see the next 7 days of passes ≥ 10°. The values pass through the URL so the page stays shareable.

No JS? Fill the form by hand. The geolocation button needs JavaScript.